Location: Sternwarte_Laufen
(47.9344°N, 12.9346°E)
Time: 13:59:08
(UTC+02:00)

ISS - Pass Details

Date: 21 July 2018
Orbit: 402 x 408 km, 51.6° (Epoch: 21 July)

Event Time Altitude Azimuth Distance (km) Brightness Sun altitude
Rises 22:52:53 0° 246° (WSW) 2,315 0.2 -14.7°
Reaches altitude 10° 22:54:57 10° 247° (WSW) 1,459 -0.9 -14.9°
Maximum altitude 22:58:13 88° 338° (NNW) 411 -3.9 -15.2°
Drops below altitude 10° 23:01:31 10° 67° (ENE) 1,468 -1.1 -15.5°
Sets 23:03:37 0° 68° (ENE) 2,332 -0.1 -15.7°
